Weather History for Deering, AK

Change the Weather History Date:

Thursday, September 5, 2013

  Actual Average (PAOT) Record (PAOT)
Temperature  
Mean Temperature 50 °F 47 °F  
Max Temperature 55 °F 52 °F 72 °F (1942)
Min Temperature 44 °F 42 °F 29 °F (1960)
Degree Days  
Heating Degree Days 15 18  
Month to date heating degree days 87  
Since 1 July heating degree days 825  
Cooling Degree Days 0    
Month to date cooling degree days  
Year to date cooling degree days  
Moisture  
Dew Point 42 °F    
Average Humidity 75    
Maximum Humidity 89    
Minimum Humidity 62    
Precipitation  
Precipitation 0.00 in 0.06 in 0.95 in (1990)
Month to date precipitation 0.28  
Year to date precipitation 7.16  
Snow  
Snow 0.00 in 0.00 in T in (1993)
Month to date snowfall 0.0  
Since 1 July snowfall 0.0  
Since 1 September snowfall 0.0  
Snow Depth -    
Sea Level Pressure  
Sea Level Pressure 29.60 in    
Wind  
Wind Speed 14 mph (SSE)    
Max Wind Speed 20 mph    
Max Gust Speed 26 mph    
Visibility 10 miles    
Events      
T = Trace of Precipitation, MM = Missing Value Source: NWS Daily Summary

Daily Weather History Graph

Daily Weather History Graph

Search for Another Location

Airport:

Trip Planner

Search our weather history database for the weather conditions in past years. The results will help you decide how hot, cold, wet, or windy it might be!

Date:

Astronomy

Sep. 05, 2013 Rise Set
Actual Time 7:40 AM AKDT 9:56 PM AKDT
Civil Twilight 6:44 AM AKDT 10:52 PM AKDT
Nautical Twilight 5:25 AM AKDT 12:09 AM AKDT
Astronomical Twilight 3:22 AM AKDT 2:16 AM AKDT
Moon 8:36 AM AKDT (9/5) 9:10 PM AKDT (9/5)
Length of Visible Light 16h 07m
Length of Day
14h 15m
New Moon, 0% of the Moon is Illuminated
Sep 5
New Moon
Sep 12
First Quarter
Sep 19
Full
Sep 26
Last Quarter
Oct 4
New

Hourly Weather History & Observations

Time (AKDT) Temp. Windchill Dew Point Humidity Pressure Visibility Wind Dir Wind Speed Gust Speed Precip Events Conditions
12:53 AM 48.9 °F - 44.1 °F 83% 29.42 in 10.0 mi South 11.5 mph - 0.00 in   Overcast
2:53 AM 48.0 °F - 42.1 °F 80% 29.46 in 10.0 mi South 15.0 mph - N/A   Overcast
3:53 AM 46.9 °F - 41.0 °F 80% 29.47 in 10.0 mi SSE 12.7 mph - N/A   Overcast
4:53 AM 46.9 °F - 41.0 °F 80% 29.49 in 10.0 mi SSE 13.8 mph - N/A   Overcast
8:53 AM 45.0 °F 39.7 °F 41.0 °F 86% 29.55 in 10.0 mi SSE 10.4 mph - 0.00 in   Mostly Cloudy
9:53 AM 46.0 °F 40.6 °F 41.0 °F 83% 29.57 in 10.0 mi SSE 11.5 mph - N/A   Clear
10:53 AM 46.9 °F - 41.0 °F 80% 29.59 in 10.0 mi SE 11.5 mph - N/A   Partly Cloudy
11:20 AM 48.2 °F - 41.0 °F 76% 29.59 in 10.0 mi SSE 13.8 mph - N/A   Mostly Cloudy
11:53 AM 48.0 °F - 41.0 °F 77% 29.60 in 10.0 mi SSE 13.8 mph - N/A   Overcast
12:03 PM 48.2 °F - 41.0 °F 76% 29.60 in 10.0 mi SSE 10.4 mph - N/A   Mostly Cloudy
12:36 PM 50.0 °F - 42.8 °F 76% 29.61 in 10.0 mi SSE 12.7 mph - N/A   Overcast
1:53 PM 53.1 °F - 42.1 °F 66% 29.62 in 10.0 mi SE 17.3 mph 24.2 mph N/A   Overcast
2:53 PM 54.0 °F - 41.0 °F 62% 29.63 in 10.0 mi SSE 13.8 mph - N/A   Overcast
3:53 PM 53.1 °F - 41.0 °F 64% 29.64 in 10.0 mi SSE 19.6 mph 26.5 mph N/A   Mostly Cloudy
4:53 PM 55.0 °F - 42.1 °F 62% 29.64 in 10.0 mi SE 18.4 mph 24.2 mph 0.00 in   Overcast
5:53 PM 54.0 °F - 41.0 °F 62% 29.65 in 10.0 mi SSE 16.1 mph - N/A   Overcast
6:53 PM 53.1 °F - 42.1 °F 66% 29.65 in 10.0 mi SSE 18.4 mph - N/A   Overcast
7:53 PM 52.0 °F - 42.1 °F 69% 29.66 in 10.0 mi SE 16.1 mph - N/A   Mostly Cloudy
8:53 PM 50.0 °F - 42.1 °F 74% 29.67 in 10.0 mi SE 17.3 mph - N/A   Partly Cloudy
9:53 PM 46.9 °F - 42.1 °F 83% 29.68 in 10.0 mi SE 12.7 mph - N/A   Clear
10:53 PM 45.0 °F 38.5 °F 39.9 °F 82% 29.69 in 10.0 mi SSE 13.8 mph - N/A   Mostly Cloudy
11:53 PM 44.1 °F 37.7 °F 41.0 °F 89% 29.70 in 10.0 mi SE 12.7 mph - N/A   Mostly Cloudy